Location: Unspecified
(50.9733°N, 0.0000°E)
Time: 03:59:57
(UTC+00:00)

SHIYUAN 5 (SY-5) - Visible Passes

Search period start: 04 April 2026 00:00
Search period end: 14 April 2026 00:00
Orbit: 737 x 756 km, 98.1° (Epoch: 29 March)

Date Brightness Start Highest point End Pass type
(mag) Time Alt. Az. Time Alt. Az. Time Alt. Az.
4 Apr ? 20:06:28 10° NE 20:08:53 15° E 20:08:53 15° E visible
4 Apr ? 21:43:36 10° NNE 21:48:36 87° WNW 21:48:42 85° WSW visible
4 Apr ? 23:23:33 10° NNW 23:26:34 16° NW 23:28:31 13° W visible
5 Apr ? 21:01:32 10° NNE 21:06:07 42° E 21:06:07 42° E visible
5 Apr ? 22:40:26 10° N 22:44:48 32° WNW 22:45:56 28° W visible
6 Apr ? 20:20:04 10° NE 20:23:33 19° E 20:23:33 19° E visible
6 Apr ? 21:57:51 10° N 22:02:47 67° WNW 22:03:22 61° WSW visible
6 Apr ? 23:38:22 10° NNW 23:40:33 13° NW 23:42:44 10° WNW visible
7 Apr ? 21:15:38 10° NNE 21:20:32 56° E 21:20:47 55° ESE visible
7 Apr ? 22:54:52 10° N 22:58:52 25° WNW 23:00:36 21° W visible
8 Apr ? 20:33:54 10° NE 20:38:01 25° E 20:38:12 25° E visible
8 Apr ? 22:12:08 10° N 22:16:57 51° WNW 22:18:01 43° WSW visible
8 Apr ? 23:54:01 10° NW 23:54:31 10° NW 23:55:00 10° NW visible
9 Apr ? 19:53:42 10° ENE 19:55:13 11° E 19:55:37 11° E visible
9 Apr ? 21:29:47 10° NNE 21:34:46 74° ESE 21:35:26 63° SSE visible
9 Apr ? 23:09:22 10° NNW 23:12:55 20° WNW 23:15:15 15° W visible
10 Apr ? 20:47:51 10° NNE 20:52:20 33° E 20:52:52 32° ESE visible
10 Apr ? 22:26:28 10° N 22:31:04 39° WNW 22:32:40 30° WSW visible
11 Apr ? 20:06:46 10° NE 20:09:39 15° E 20:10:17 15° E visible
11 Apr ? 21:43:59 10° NNE 21:48:58 85° WNW 21:50:05 55° SSW visible
11 Apr ? 23:23:59 10° NNW 23:26:55 16° NW 23:29:50 10° W visible
12 Apr ? 21:01:54 10° NNE 21:06:38 43° E 21:07:30 39° SE visible
12 Apr ? 22:40:50 10° N 22:45:09 31° WNW 22:47:19 22° WSW visible
13 Apr ? 20:20:24 10° NE 20:24:02 20° E 20:24:55 19° ESE visible
13 Apr ? 21:58:13 10° N 22:03:09 65° WNW 22:04:43 41° SW visible
13 Apr ? 23:38:49 10° NNW 23:40:54 13° NW 23:42:58 10° WNW visible
